TimeMST,TemperatureF,Dew PointF,Humidity,Sea Level PressureIn,VisibilityMPH,Wind Direction,Wind SpeedMPH,Gust SpeedMPH,PrecipitationIn,Events,Conditions,WindDirDegrees,DateUTC
12:51 AM,60.1,46.0,60,29.70,10.0,Variable,3.5,-,N/A,,Clear,0,2012-10-22 07:51:00
1:51 AM,60.1,46.0,60,29.70,10.0,South,4.6,-,N/A,,Clear,180,2012-10-22 08:51:00
2:51 AM,59.0,46.9,64,29.71,10.0,South,8.1,-,N/A,,Clear,170,2012-10-22 09:51:00
3:51 AM,55.0,45.0,69,29.72,10.0,SSE,6.9,-,N/A,,Clear,150,2012-10-22 10:51:00
4:51 AM,55.9,45.0,67,29.72,10.0,South,9.2,-,N/A,,Clear,180,2012-10-22 11:51:00
5:51 AM,55.0,45.0,69,29.74,10.0,South,8.1,-,N/A,,Clear,170,2012-10-22 12:51:00
6:51 AM,53.1,45.0,74,29.76,10.0,South,9.2,-,N/A,,Clear,180,2012-10-22 13:51:00
7:51 AM,60.8,48.2,63,29.92,10.0,South,5.8,-,N/A,,Clear,190,2012-10-22 14:51:00
8:51 AM,66.0,48.9,54,29.79,10.0,SSW,16.1,24.2,N/A,,Partly Cloudy,210,2012-10-22 15:51:00
9:51 AM,68.0,48.9,50,29.81,10.0,SW,18.4,25.3,N/A,,Clear,220,2012-10-22 16:51:00
10:51 AM,69.1,48.0,47,29.81,10.0,SSW,19.6,26.5,N/A,,Clear,210,2012-10-22 17:51:00
11:51 AM,70.0,48.9,47,29.80,10.0,WSW,16.1,23.0,N/A,,Clear,240,2012-10-22 18:51:00
12:51 PM,73.0,48.0,41,29.76,10.0,SW,19.6,26.5,N/A,,Clear,220,2012-10-22 19:51:00
1:51 PM,73.0,45.0,37,29.74,10.0,SW,20.7,-,N/A,,Clear,220,2012-10-22 20:51:00
2:51 PM,73.4,44.6,36,29.91,10.0,SW,20.7,-,N/A,,Clear,220,2012-10-22 21:51:00
3:51 PM,73.0,43.0,34,29.74,10.0,SW,19.6,27.6,N/A,,Clear,220,2012-10-22 22:51:00
4:51 PM,72.0,41.0,33,29.73,10.0,SSW,21.9,26.5,N/A,,Clear,200,2012-10-22 23:51:00
5:51 PM,68.0,43.0,40,29.73,10.0,SSW,12.7,-,N/A,,Clear,200,2012-10-23 00:51:00
6:51 PM,66.0,42.1,42,29.75,10.0,SSW,11.5,-,N/A,,Clear,200,2012-10-23 01:51:00
7:51 PM,64.4,44.6,49,29.90,10.0,SSW,9.2,20.7,N/A,,Clear,210,2012-10-23 02:51:00
8:51 PM,64.0,39.9,41,29.74,10.0,South,10.4,-,N/A,,Clear,180,2012-10-23 03:51:00
9:51 PM,64.9,43.0,45,29.73,10.0,South,11.5,-,N/A,,Clear,190,2012-10-23 04:51:00
10:51 PM,63.0,28.9,28,29.74,10.0,South,9.2,-,N/A,,Clear,180,2012-10-23 05:51:00
11:51 PM,61.0,28.9,30,29.73,10.0,South,11.5,-,N/A,,Clear,170,2012-10-23 06:51:00